sat.trackr.live / text

‹ back to catalog

ONEWEB-0522

NORAD 54140 · 2022-138AD

PAYLOAD ACTIVE UNKNOWN

§ Identity

Operator
Country
UK
Launch date
2022-10-22
Launch site
SRILR
Launch vehicle
Mass (kg)
RCS (m²)

Purposes: comms

External: N2YO · Heavens-Above · Gunter

§ Orbital elements

Epoch: 2026-05-25T04:04:47.587008Z

Period
109.11 min
Inclination
87.9160°
Eccentricity
0.0001744
Mean motion
13.19726646 rev/d
Perigee alt
1,184.4 km
Apogee alt
1,187.1 km
Semi-major
7,563.9 km
B*
3.1306e-4
RAAN
309.5435°
Arg perigee
88.7851°
Mean anomaly
271.3481°
Rev number
17,377

§ Raw data

ONEWEB-05221 54140U 22138AD  26145.16999522  .00000138  00000+0  31306-3 0  99982 54140  87.9160 309.5435 0001744  88.7851 271.3481 13.19726646173775

JSON: /api/v1/satellites/54140 · /tle

For live sub-satellite position, see the globe view (requires WebGL).

§ Visibility from observer

Set your observer location to see the next 7 days of passes ≥ 10°. The values pass through the URL so the page stays shareable.

No JS? Fill the form by hand. The geolocation button needs JavaScript.